Temperature
10 10 9 10 10 9 9 9 8 8 9 9 9 9 9 8 8 8 8 8 7 7 7 6 6 6 5 5 4 4 3 3 2 2 1 1 1 0
10 10 10 9 10 9 9 9 8 8 8 8 8 8 8 8 8 8 7 7 7 7 6 6 6 5 5 4 4 3 3 2 2 1 1 0 0 -0
10 10 10 10 9 9 9 9 9 8 8 8 8 8 8 8 7 7 7 7 7 6 6 6 5 5 5 4 3 3 2 2 1 1 0 -0 -1 -1
10 10 10 10 10 10 9 9 9 9 8 8 8 8 8 7 7 7 7 7 6 6 6 5 5 4 4 4 3 2 2 1 1 0 -0 -1 -1 -2
10 10 10 10 10 10 9 9 9 9 8 8 8 7 7 7 7 7 6 6 6 6 5 5 4 4 3 3 3 2 2 1 0 -0 -1 -1 -2 -2
10 10 10 10 10 10 9 9 9 8 8 8 8 7 7 7 7 6 6 6 5 5 5 4 4 4 3 3 2 2 1 1 -0 -1 -1 -2 -2 -2
10 10 10 10 10 10 9 9 9 8 8 8 7 7 7 6 6 6 5 5 5 5 4 4 4 3 3 2 2 1 1 0 -0 -1 -2 -2 -2 -3
10 10 10 10 10 9 9 9 8 8 8 8 7 7 7 6 6 5 5 4 4 4 4 4 3 3 2 2 1 1 0 -0 -1 -1 -2 -2 -3 -3
10 10 10 10 10 9 9 8 8 8 8 7 7 7 6 6 5 5 4 4 4 3 3 3 3 2 2 1 1 0 -0 -1 -1 -2 -2 -2 -3 -3
10 10 10 10 9 9 9 9 8 8 7 7 7 6 6 5 5 4 4 3 3 3 2 2 2 2 2 1 1 -0 -1 -1 -2 -2 -2 -3 -3 -4
9 9 9 9 9 9 9 8 8 8 7 7 6 6 5 5 4 4 3 3 2 2 2 1 1 1 1 1 0 -0 -1 -1 -2 -2 -3 -3 -4 -4
9 9 9 9 9 9 8 8 8 8 7 7 6 5 5 4 4 3 3 2 2 1 1 1 0 -1 -1 -0 -0 -1 -2 -2 -2 -3 -3 -4 -4 -4
9 9 9 9 9 8 8 8 7 7 6 6 5 5 4 4 3 3 2 2 1 1 0 -0 -1 -1 -2 -2 -1 -2 -2 -3 -3 -3 -3 -4 -4 -5
9 9 9 9 8 8 8 7 7 6 6 5 5 4 4 3 3 3 2 1 1 0 -0 -1 -1 -2 -2 -3 -3 -2 -3 -3 -4 -4 -4 -4 -4 -4
9 9 9 8 8 7 7 7 6 6 5 5 4 4 3 3 2 2 2 1 1 0 -0 -1 -1 -2 -2 -3 -3 -3 -4 -4 -4 -4 -4 -5 -5 -5
8 8 8 7 7 7 6 6 6 5 5 4 4 4 3 2 2 1 1 1 0 0 -0 -1 -1 -2 -2 -3 -4 -4 -4 -5 -5 -5 -5 -5 -5 -5
8 8 7 7 7 6 6 5 5 5 4 4 3 3 2 2 1 1 1 0 -0 -0 -1 -1 -1 -2 -2 -3 -4 -4 -5 -5 -5 -5 -5 -5 -5 -5
7 7 7 7 6 6 6 5 5 4 4 3 3 2 2 1 1 0 0 -0 -1 -1 -1 -2 -2 -2 -3 -3 -4 -4 -5 -5 -5 -5 -5 -5 -5 -5
7 7 7 6 6 6 5 5 4 4 3 3 2 2 1 1 0 0 -0 -1 -1 -1 -2 -2 -3 -3 -4 -5 -4 -4 -5 -5 -5 -5 -5 -6 -5 -5
6 6 6 6 5 5 5 4 4 3 3 2 2 1 1 0 0 -0 -1 -1 -1 -2 -2 -3 -3 -4 -4 -5 -5 -5 -5 -6 -6 -6 -6 -5 -5 -5
6 6 6 5 5 5 4 4 3 3 2 2 1 1 0 0 -0 -1 -1 -2 -2 -2 -3 -3 -3 -4 -4 -5 -5 -5 -5 -6 -6 -6 -6 -6 -6 -5
6 6 5 5 5 4 4 3 3 2 2 1 1 0 0 -0 -1 -1 -2 -2 -2 -3 -3 -3 -4 -4 -4 -5 -5 -5 -5 -5 -5 -6 -6 -6 -7 -7
5 5 5 4 4 4 3 3 3 2 1 1 1 0 -0 -1 -1 -2 -2 -2 -3 -3 -3 -4 -4 -4 -5 -5 -5 -6 -5 -5 -5 -5 -5 -5 -6 -6
Wind_Speed
14 14 12 10 9 9 8 7 7 6 6 5 4 4 5 5 5 7 8 8 11 12 13 13 13 14 14 14 15 16 16 16 17 18 19 20 21 22
12 14 13 10 9 8 8 8 8 8 7 4 4 4 4 4 5 6 7 8 9 10 11 12 12 12 13 13 14 14 15 16 17 17 18 20 21 21
14 14 14 13 10 9 8 8 8 8 9 8 6 5 5 5 4 5 6 6 6 8 9 10 11 11 11 12 13 14 14 15 16 17 18 19 20 21
16 15 15 11 13 10 9 9 9 9 9 9 7 5 5 5 5 5 4 5 6 6 8 9 10 10 11 11 12 12 13 14 15 16 18 18 19 20
16 15 15 14 13 11 10 9 8 7 8 7 7 4 4 3 4 4 4 4 4 5 7 8 9 9 10 11 11 11 12 13 14 16 16 18 19 20
14 14 14 14 14 12 10 10 8 7 7 6 6 5 4 3 3 4 4 3 4 4 5 6 7 8 9 9 9 10 11 13 14 15 16 17 18 19
13 13 13 13 13 10 8 9 8 7 6 6 6 5 4 3 3 2 4 4 4 2 4 5 5 5 6 7 8 10 11 13 14 15 16 17 18 19
13 12 11 11 11 11 10 9 8 8 8 6 5 5 5 4 3 2 3 3 3 1 4 5 4 5 5 6 8 9 11 13 15 16 16 17 18 19
12 11 9 9 11 9 9 8 6 5 6 6 6 5 4 3 3 3 3 3 3 3 3 4 3 5 5 6 8 9 11 13 15 15 16 17 18 19
11 12 11 10 10 11 9 7 6 5 5 5 4 3 2 2 2 2 2 3 3 1 2 3 4 6 6 6 6 8 11 13 14 15 15 16 17 19
10 10 11 10 13 14 11 9 7 4 4 6 5 3 4 3 2 1 1 1 2 2 1 3 4 6 6 5 5 9 11 12 13 14 14 15 17 18
8 8 10 11 14 15 11 10 9 7 6 5 4 3 2 3 3 1 1 1 1 2 1 2 3 4 4 4 5 7 8 11 13 13 14 15 17 14
8 7 7 13 14 14 12 9 9 8 7 6 4 3 2 1 1 1 1 1 2 2 1 1 2 3 3 4 5 6 7 8 9 10 12 15 16 14
8 7 8 14 14 13 10 10 13 10 6 5 4 3 2 1 1 1 2 1 1 2 2 2 2 3 4 5 5 6 8 8 8 8 10 14 14 15
7 10 12 14 13 10 12 13 11 7 6 5 4 3 2 2 1 1 2 2 2 2 2 3 3 4 4 5 6 7 8 7 7 9 10 10 10 10
8 11 13 12 9 9 10 8 5 5 5 5 4 3 3 2 2 1 1 1 1 2 3 3 4 4 5 6 6 7 7 7 8 10 10 10 10 9
10 8 6 6 6 6 5 5 5 5 5 4 5 4 3 3 2 1 0 1 1 2 3 4 5 5 5 5 5 6 7 8 9 9 10 11 10 9
12 8 8 7 7 7 7 6 5 5 5 5 5 4 4 3 2 1 1 1 1 2 3 4 5 4 3 3 4 6 7 8 9 9 9 10 11 10
9 8 8 8 7 7 7 6 5 5 5 5 5 4 4 3 2 1 1 1 1 2 2 3 3 4 5 5 3 3 6 8 9 9 9 9 10 11
7 8 8 8 7 7 7 6 6 6 5 5 5 5 4 3 3 2 1 0 1 2 2 2 3 3 4 5 4 5 8 8 8 9 9 9 9 12
7 7 7 8 7 7 7 7 7 6 6 5 5 5 4 4 3 2 1 1 1 1 2 3 3 5 4 4 5 6 6 8 9 8 9 9 8 8
7 7 7 7 7 7 7 7 7 7 7 5 5 5 4 3 3 3 2 1 0 1 2 3 3 3 3 4 5 7 8 9 10 10 9 7 6 6
8 8 8 8 8 7 7 8 8 7 6 6 6 5 4 4 3 2 2 1 1 1 2 2 3 3 4 4 5 6 9 9 8 8 7 10 12 14
Wind_Direction
212 214 217 219 218 222 225 228 240 261 264 248 235 222 220 233 241 248 256 257 258 265 269 273 276 280 284 288 291 294 296 300 303 304 304 306 307 310
211 213 216 219 217 217 222 226 230 241 259 258 246 245 229 242 245 254 260 264 261 266 271 273 277 281 284 287 291 295 298 300 302 305 307 309 311 312
209 214 217 217 215 215 216 220 226 230 248 258 257 255 247 255 251 254 264 268 271 269 272 276 279 280 284 288 292 294 297 300 304 307 308 309 311 312
210 212 216 213 217 217 214 218 222 224 237 254 259 253 248 258 268 267 268 270 276 279 277 279 281 285 288 291 294 295 298 301 305 307 309 311 312 312
211 212 213 211 215 215 215 218 219 221 228 241 255 254 255 254 266 269 268 274 281 281 280 279 282 288 290 295 297 299 300 303 305 307 309 310 311 313
212 212 213 212 214 213 213 215 213 213 217 229 243 249 251 253 263 272 274 282 288 288 287 290 289 286 289 298 300 300 302 304 307 309 310 311 312 312
209 211 213 211 211 209 206 207 204 208 209 218 232 239 242 240 253 265 279 290 285 281 299 294 293 292 296 295 297 301 303 306 309 309 310 311 313 313
204 206 206 203 204 202 199 199 197 203 208 212 223 230 240 240 242 254 275 290 284 319 305 297 299 298 304 303 306 303 304 309 312 312 312 313 314 314
200 199 198 197 193 194 188 183 190 197 205 208 215 226 233 233 230 244 256 272 283 330 313 291 304 302 308 302 300 300 308 313 314 313 314 315 316 315
199 198 196 191 187 181 178 182 191 198 204 207 211 218 221 216 211 235 253 271 283 320 328 285 307 308 310 297 290 299 307 311 313 314 315 317 318 316
194 194 192 190 177 170 173 173 170 168 139 146 140 127 113 114 122 123 99 314 286 284 319 293 305 313 302 288 297 303 306 310 313 315 316 318 320 318
185 187 189 186 175 171 179 177 179 178 160 149 142 129 121 105 108 131 195 259 293 280 339 305 308 326 306 295 308 313 311 312 313 313 315 318 322 320
180 183 183 175 175 173 176 182 176 164 158 153 144 137 130 111 78 51 34 255 257 259 308 310 297 308 295 302 307 311 318 320 318 315 315 318 321 319
178 176 171 164 166 165 168 162 153 150 150 146 147 148 143 125 80 55 49 25 341 287 292 291 274 291 299 301 299 314 320 319 319 320 322 321 319 316
163 154 148 148 151 154 155 153 154 157 156 155 158 158 150 145 118 78 57 50 33 9 339 313 296 292 288 284 293 306 315 316 320 323 322 320 318 317
142 137 135 135 135 137 142 149 158 159 157 157 151 142 132 127 117 87 47 11 360 358 0 343 319 294 286 288 289 297 309 311 317 320 320 315 314 312
146 136 139 140 141 141 140 143 146 148 149 145 144 143 138 134 120 98 42 351 342 330 334 342 339 317 285 279 288 297 309 314 317 321 320 316 315 316
144 149 155 157 159 159 157 153 150 153 152 148 148 150 151 148 136 106 53 23 347 336 335 337 338 335 319 275 249 294 309 317 319 318 316 313 314 318
149 157 161 163 162 161 161 159 158 152 148 149 150 150 145 143 140 136 112 41 2 346 340 338 339 339 331 328 310 275 310 316 317 316 315 313 309 312
155 158 160 161 161 160 158 154 149 146 147 150 149 149 150 148 146 148 150 69 347 338 340 341 341 330 315 310 306 301 305 309 314 314 314 314 308 303
156 156 155 155 155 154 152 151 151 151 151 151 151 150 152 149 148 148 141 129 30 343 332 327 325 319 305 299 303 312 317 316 309 304 311 317 321 323
155 152 149 148 150 150 148 148 147 148 150 151 149 150 150 148 145 144 144 148 37 358 334 333 337 334 334 327 322 320 323 325 322 312 298 293 314 323
150 147 146 148 149 147 147 148 149 150 151 151 148 147 145 138 134 135 133 123 93 44 3 344 342 345 340 330 325 324 326 330 332 335 331 325 314 302
Height
1498 1501 1503 1505 1507 1509 1510 1512 1513 1512 1511 1510 1509 1508 1507 1506 1505 1503 1501 1500 1498 1496 1494 1492 1489 1487 1484 1481 1477 1474 1471 1468 1464 1461 1457 1453 1450 1446
1493 1495 1498 1500 1502 1504 1505 1506 1507 1508 1507 1506 1505 1504 1503 1502 1501 1499 1497 1495 1493 1491 1489 1487 1484 1481 1478 1475 1472 1469 1465 1462 1458 1455 1451 1448 1444 1441
1487 1490 1492 1495 1497 1498 1500 1501 1502 1502 1502 1501 1501 1500 1499 1498 1496 1494 1493 1491 1489 1487 1484 1482 1479 1476 1473 1470 1466 1463 1460 1456 1453 1449 1446 1442 1438 1435
1481 1484 1486 1489 1491 1493 1494 1495 1496 1497 1497 1496 1496 1495 1494 1493 1492 1490 1488 1486 1484 1482 1479 1477 1474 1471 1468 1465 1461 1458 1454 1451 1447 1444 1440 1436 1433 1429
1475 1478 1481 1483 1485 1487 1489 1490 1491 1492 1492 1492 1491 1491 1490 1488 1487 1486 1484 1482 1480 1477 1475 1472 1469 1466 1463 1460 1456 1453 1449 1446 1442 1438 1435 1431 1427 1423
1469 1472 1475 1477 1480 1482 1483 1485 1486 1487 1487 1487 1486 1486 1485 1484 1483 1481 1479 1477 1475 1473 1470 1468 1465 1462 1458 1455 1451 1448 1444 1441 1437 1433 1430 1426 1422 1418
1463 1466 1469 1472 1474 1476 1478 1480 1481 1482 1482 1482 1482 1481 1480 1479 1478 1476 1475 1473 1470 1468 1466 1463 1460 1457 1454 1450 1447 1443 1440 1436 1433 1429 1425 1421 1417 1413
1457 1460 1463 1466 1469 1471 1473 1475 1476 1477 1477 1477 1477 1476 1476 1475 1474 1473 1471 1469 1466 1465 1462 1459 1456 1453 1450 1446 1443 1439 1435 1432 1428 1424 1420 1416 1412 1408
1452 1455 1458 1461 1463 1466 1468 1470 1471 1472 1473 1473 1473 1472 1472 1471 1470 1469 1467 1465 1463 1460 1458 1455 1452 1449 1446 1442 1439 1435 1432 1428 1424 1420 1415 1411 1407 1403
1447 1450 1453 1455 1458 1461 1463 1465 1466 1467 1468 1468 1469 1468 1468 1467 1467 1466 1464 1462 1460 1457 1454 1451 1448 1445 1442 1439 1435 1432 1428 1424 1419 1415 1411 1407 1403 1399
1442 1445 1448 1451 1454 1457 1459 1460 1461 1462 1463 1464 1464 1465 1464 1464 1463 1462 1460 1458 1456 1454 1451 1448 1444 1441 1438 1435 1432 1428 1424 1420 1416 1411 1407 1403 1399 1394
1437 1440 1443 1446 1449 1452 1454 1456 1457 1458 1459 1460 1460 1460 1460 1460 1459 1458 1457 1455 1453 1451 1448 1446 1442 1438 1434 1431 1429 1425 1420 1416 1412 1408 1404 1399 1395 1391
1432 1435 1438 1442 1445 1448 1450 1452 1453 1455 1456 1456 1456 1457 1457 1456 1455 1455 1453 1452 1450 1448 1446 1443 1440 1437 1433 1428 1424 1421 1417 1413 1408 1404 1401 1397 1392 1388
1427 1431 1435 1438 1441 1443 1445 1447 1449 1451 1452 1452 1453 1453 1453 1453 1452 1451 1450 1449 1447 1446 1444 1441 1438 1435 1431 1426 1422 1418 1414 1410 1406 1402 1398 1393 1389 1385
1424 1428 1431 1434 1437 1439 1442 1444 1446 1447 1448 1449 1449 1450 1450 1450 1449 1449 1447 1446 1445 1443 1441 1438 1436 1432 1429 1425 1420 1415 1411 1407 1404 1399 1395 1390 1386 1381
1420 1423 1427 1430 1433 1435 1438 1440 1442 1443 1444 1445 1446 1447 1447 1447 1447 1446 1445 1444 1442 1440 1438 1436 1433 1430 1426 1423 1419 1414 1410 1406 1401 1397 1393 1388 1384 1380
1415 1419 1423 1426 1429 1432 1434 1436 1438 1440 1441 1442 1443 1443 1444 1444 1444 1443 1443 1441 1440 1437 1435 1433 1431 1428 1424 1421 1417 1413 1409 1405 1400 1396 1390 1386 1382 1378
1412 1415 1419 1422 1425 1428 1431 1433 1435 1436 1438 1439 1440 1441 1441 1441 1441 1441 1440 1439 1437 1435 1433 1431 1428 1425 1422 1418 1416 1411 1407 1403 1399 1394 1389 1384 1380 1376
1408 1411 1415 1419 1422 1425 1427 1430 1432 1433 1435 1436 1437 1438 1438 1439 1439 1438 1438 1437 1435 1434 1432 1429 1426 1423 1420 1417 1414 1411 1406 1401 1397 1393 1389 1384 1379 1375
1405 1408 1412 1415 1419 1421 1424 1426 1428 1430 1432 1433 1434 1435 1436 1436 1436 1436 1435 1434 1433 1432 1430 1428 1425 1423 1420 1417 1413 1409 1406 1401 1396 1391 1387 1383 1378 1374
1401 1405 1409 1412 1416 1419 1421 1423 1425 1427 1429 1430 1431 1432 1433 1434 1434 1434 1433 1433 1432 1430 1428 1427 1425 1423 1420 1416 1413 1409 1406 1402 1397 1392 1387 1382 1377 1372
1399 1403 1406 1410 1413 1416 1418 1420 1422 1424 1426 1427 1429 1430 1431 1431 1432 1432 1431 1431 1430 1429 1427 1426 1424 1422 1419 1416 1412 1409 1405 1401 1398 1393 1389 1384 1380 1373
1397 1400 1404 1407 1410 1413 1415 1418 1420 1422 1423 1425 1426 1428 1429 1429 1430 1430 1430 1430 1429 1428 1427 1425 1423 1421 1419 1416 1413 1409 1405 1401 1397 1393 1390 1385 1381 1377